Powrót do katalogu

THOR ABLESTAR DEB

AktywnyLEO
NORAD 121·DEBRIS·🇺🇸 United States

Wystrzelony Jun 29, 1961 z Cape Canaveral Space Force Station

Loading…

Następne Przeloty (najbliższe 24 godziny)

TLE

ŚwieżeSource: Space-Track

Epoka: Sep 14, 2026, 12:33 UTC

1 00121U 61015F   26257.52294024 -.00000014  00000-0  42559-4 0  9992
2 00121  66.7476 179.4332 0098872 300.5725  58.5631 14.00243667338877

Śledź THOR ABLESTAR DEB w czasie rzeczywistym z AllMySat

Download on the App Store